| time (UTC) | temp F | wind direction | speed MPH | gust MPH | rain 1hr in | rain 24hr in | rain mn in | humidity % | barometer mb |
| 20260510230750 | 85 | 65 | 2.0 | 6.0 | 0.00 | 0.00 | 0.00 | 64 | 1015.2 |
| 20260510230715 | 85 | 65 | 2.0 | 6.0 | 0.00 | 0.00 | 0.00 | 64 | 1015.2 |
| 20260510230319 | 85 | 65 | 2.0 | 6.0 | 0.00 | 0.00 | 0.00 | 64 | 1015.2 |
| 20260510225955 | 85 | 80 | 3.0 | 5.0 | 0.00 | 0.00 | 0.00 | 64 | 1015.1 |
| 20260510225820 | 85 | 80 | 3.0 | 5.0 | 0.00 | 0.00 | 0.00 | 64 | 1015.1 |
| 20260510225751 | 85 | 42 | 2.0 | 6.0 | 0.00 | 0.00 | 0.00 | 63 | 1015.1 |
| 20260510225317 | 85 | 42 | 2.0 | 6.0 | 0.00 | 0.00 | 0.00 | 63 | 1015.1 |
| 20260510225251 | 85 | 4 | 4.0 | 4.0 | 0.00 | 0.00 | 0.00 | 62 | 1015.1 |
| 20260510224635 | 85 | 23 | 1.0 | 5.0 | 0.00 | 0.00 | 0.00 | 63 | 1015.1 |
| 20260510224320 | 85 | 23 | 1.0 | 5.0 | 0.00 | 0.00 | 0.00 | 63 | 1015.1 |
| 20260510224029 | 85 | 17 | 2.0 | 6.0 | 0.00 | 0.00 | 0.00 | 63 | 1015.1 |
| 20260510223956 | 85 | 17 | 2.0 | 6.0 | 0.00 | 0.00 | 0.00 | 63 | 1015.1 |
| 20260510223822 | 85 | 17 | 2.0 | 6.0 | 0.00 | 0.00 | 0.00 | 63 | 1015.1 |
| 20260510223543 | 86 | 59 | 3.0 | 7.0 | 0.00 | 0.00 | 0.00 | 62 | 1015.1 |
| 20260510223017 | 86 | 336 | 2.0 | 9.0 | 0.00 | 0.00 | 0.00 | 61 | 1015.1 |
| 20260510222826 | 86 | 336 | 2.0 | 9.0 | 0.00 | 0.00 | 0.00 | 61 | 1015.1 |
| 20260510222431 | 86 | 11 | 9.0 | 8.0 | 0.00 | 0.00 | 0.00 | 61 | 1015.1 |
| 20260510222321 | 86 | 11 | 9.0 | 8.0 | 0.00 | 0.00 | 0.00 | 61 | 1015.1 |
| 20260510221954 | 87 | 27 | 4.0 | 7.0 | 0.00 | 0.00 | 0.00 | 60 | 1015.0 |
| 20260510221613 | 87 | 13 | 5.0 | 6.0 | 0.00 | 0.00 | 0.00 | 60 | 1015.0 |
| 20260510221316 | 87 | 13 | 5.0 | 6.0 | 0.00 | 0.00 | 0.00 | 60 | 1015.0 |
| 20260510221001 | 87 | 35 | 4.0 | 10.0 | 0.00 | 0.00 | 0.00 | 59 | 1015.0 |
| 20260510220823 | 87 | 35 | 4.0 | 10.0 | 0.00 | 0.00 | 0.00 | 59 | 1015.0 |
| 20260510220608 | 87 | 98 | 6.0 | 5.0 | 0.00 | 0.00 | 0.00 | 57 | 1015.1 |
| 20260510220317 | 87 | 98 | 6.0 | 5.0 | 0.00 | 0.00 | 0.00 | 57 | 1015.1 |
| 20260510215929 | 87 | 297 | 4.0 | 4.0 | 0.00 | 0.00 | 0.00 | 56 | 1015.0 |
| 20260510215821 | 87 | 297 | 4.0 | 4.0 | 0.00 | 0.00 | 0.00 | 56 | 1015.0 |
| 20260510215619 | 87 | 321 | 3.0 | 8.0 | 0.00 | 0.00 | 0.00 | 56 | 1015.0 |
| 20260510215317 | 87 | 321 | 3.0 | 8.0 | 0.00 | 0.00 | 0.00 | 56 | 1015.0 |
| 20260510215001 | 87 | 166 | 2.0 | 5.0 | 0.00 | 0.00 | 0.00 | 56 | 1014.9 |
| 20260510214817 | 87 | 166 | 2.0 | 5.0 | 0.00 | 0.00 | 0.00 | 56 | 1014.9 |
| 20260510213949 | 87 | 332 | 2.0 | 4.0 | 0.00 | 0.00 | 0.00 | 57 | 1015.0 |
| 20260510213820 | 87 | 332 | 2.0 | 4.0 | 0.00 | 0.00 | 0.00 | 57 | 1015.0 |
| 20260510213541 | 87 | 291 | 2.0 | 6.0 | 0.00 | 0.00 | 0.00 | 58 | 1014.9 |
| 20260510213315 | 87 | 291 | 2.0 | 6.0 | 0.00 | 0.00 | 0.00 | 58 | 1014.9 |
| 20260510212455 | 87 | 243 | 3.0 | 7.0 | 0.00 | 0.00 | 0.00 | 58 | 1014.8 |
| 20260510212319 | 87 | 243 | 3.0 | 7.0 | 0.00 | 0.00 | 0.00 | 58 | 1014.8 |
| 20260510211949 | 87 | 262 | 7.0 | 9.0 | 0.00 | 0.00 | 0.00 | 57 | 1014.8 |
| 20260510211823 | 87 | 262 | 7.0 | 9.0 | 0.00 | 0.00 | 0.00 | 57 | 1014.8 |
| 20260510211613 | 87 | 277 | 3.0 | 9.0 | 0.00 | 0.00 | 0.00 | 57 | 1014.8 |
| 20260510211316 | 87 | 277 | 3.0 | 9.0 | 0.00 | 0.00 | 0.00 | 57 | 1014.8 |
| 20260510210613 | 87 | 290 | 4.0 | 10.0 | 0.00 | 0.00 | 0.00 | 56 | 1014.9 |
| 20260510210317 | 87 | 290 | 4.0 | 10.0 | 0.00 | 0.00 | 0.00 | 56 | 1014.9 |
| 20260510210026 | 87 | 169 | 4.0 | 9.0 | 0.00 | 0.00 | 0.00 | 56 | 1015.0 |
| 20260510205818 | 87 | 169 | 4.0 | 9.0 | 0.00 | 0.00 | 0.00 | 56 | 1015.0 |
| 20260510205730 | 87 | 191 | 5.0 | 12.0 | 0.00 | 0.00 | 0.00 | 55 | 1015.1 |
| 20260510205636 | 87 | 191 | 5.0 | 12.0 | 0.00 | 0.00 | 0.00 | 55 | 1015.1 |
| 20260510205314 | 87 | 191 | 5.0 | 12.0 | 0.00 | 0.00 | 0.00 | 55 | 1015.1 |
| 20260510204556 | 87 | 214 | 4.0 | 8.0 | 0.00 | 0.00 | 0.00 | 55 | 1015.1 |
| 20260510204317 | 87 | 214 | 4.0 | 8.0 | 0.00 | 0.00 | 0.00 | 55 | 1015.1 |
| 20260510203315 | 87 | 240 | 3.0 | 10.0 | 0.00 | 0.00 | 0.00 | 54 | 1015.1 |
| 20260510203307 | 87 | 277 | 5.0 | 9.0 | 0.00 | 0.00 | 0.00 | 56 | 1015.2 |
| 20260510202313 | 87 | 269 | 7.0 | 11.0 | 0.00 | 0.00 | 0.00 | 55 | 1015.1 |
| 20260510201814 | 87 | 277 | 5.0 | 9.0 | 0.00 | 0.00 | 0.00 | 56 | 1015.2 |
| 20260510200446 | 88 | 257 | 5.0 | 9.0 | 0.00 | 0.00 | 0.00 | 55 | 1014.8 |
| 20260510200317 | 88 | 257 | 5.0 | 9.0 | 0.00 | 0.00 | 0.00 | 55 | 1014.8 |
| 20260510195810 | 89 | 235 | 5.0 | 9.0 | 0.00 | 0.00 | 0.00 | 54 | 1014.7 |
| 20260510195317 | 89 | 235 | 5.0 | 9.0 | 0.00 | 0.00 | 0.00 | 54 | 1014.7 |
| 20260510194441 | 90 | 266 | 4.0 | 14.0 | 0.00 | 0.00 | 0.00 | 51 | 1014.6 |
| 20260510194314 | 90 | 266 | 4.0 | 14.0 | 0.00 | 0.00 | 0.00 | 51 | 1014.6 |
| 20260510192942 | 93 | 278 | 5.0 | 11.0 | 0.00 | 0.00 | 0.00 | 46 | 1014.7 |
| 20260510191426 | 94 | 138 | 5.0 | 9.0 | 0.00 | 0.00 | 0.00 | 45 | 1014.6 |
| 20260510184424 | 94 | 111 | 3.0 | 12.0 | 0.00 | 0.00 | 0.00 | 44 | 1015.0 |
| 20260510184313 | 94 | 111 | 3.0 | 12.0 | 0.00 | 0.00 | 0.00 | 44 | 1015.0 |
| 20260510183942 | 94 | 173 | 2.0 | 9.0 | 0.00 | 0.00 | 0.00 | 45 | 1015.0 |
| 20260510181941 | 94 | 162 | 6.0 | 9.0 | 0.00 | 0.00 | 0.00 | 45 | 1015.2 |
| 20260510181851 | 94 | 162 | 6.0 | 9.0 | 0.00 | 0.00 | 0.00 | 45 | 1015.2 |
| 20260510181813 | 94 | 162 | 6.0 | 9.0 | 0.00 | 0.00 | 0.00 | 45 | 1015.2 |
| 20260510181418 | 93 | 232 | 3.0 | 9.0 | 0.00 | 0.00 | 0.00 | 47 | 1015.2 |
| 20260510180510 | 93 | 246 | 4.0 | 11.0 | 0.00 | 0.00 | 0.00 | 46 | 1015.3 |
| 20260510175424 | 92 | 166 | 5.0 | 11.0 | 0.00 | 0.00 | 0.00 | 47 | 1015.5 |
| 20260510175311 | 92 | 166 | 5.0 | 11.0 | 0.00 | 0.00 | 0.00 | 47 | 1015.5 |
| 20260510173945 | 92 | 266 | 4.0 | 10.0 | 0.00 | 0.00 | 0.00 | 48 | 1015.8 |
| 20260510173308 | 92 | 207 | 5.0 | 9.0 | 0.00 | 0.00 | 0.00 | 48 | 1015.8 |
| 20260510172941 | 92 | 180 | 7.0 | 9.0 | 0.00 | 0.00 | 0.00 | 49 | 1015.9 |
| 20260510172819 | 92 | 180 | 7.0 | 9.0 | 0.00 | 0.00 | 0.00 | 49 | 1015.9 |
| 20260510172415 | 91 | 218 | 7.0 | 7.0 | 0.00 | 0.00 | 0.00 | 49 | 1015.9 |
| 20260510171905 | 91 | 152 | 4.0 | 11.0 | 0.00 | 0.00 | 0.00 | 48 | 1015.9 |
| 20260510171810 | 91 | 152 | 4.0 | 11.0 | 0.00 | 0.00 | 0.00 | 48 | 1015.9 |
| 20260510171434 | 91 | 191 | 9.0 | 8.0 | 0.00 | 0.00 | 0.00 | 49 | 1016.0 |
| 20260510171309 | 91 | 191 | 9.0 | 8.0 | 0.00 | 0.00 | 0.00 | 49 | 1016.0 |
| 20260510171016 | 91 | 179 | 5.0 | 8.0 | 0.00 | 0.00 | 0.00 | 49 | 1016.1 |
| 20260510170943 | 91 | 179 | 5.0 | 8.0 | 0.00 | 0.00 | 0.00 | 49 | 1016.1 |
| 20260510170810 | 91 | 179 | 5.0 | 8.0 | 0.00 | 0.00 | 0.00 | 49 | 1016.1 |
| 20260510165453 | 91 | 188 | 1.0 | 7.0 | 0.00 | 0.00 | 0.00 | 52 | 1016.3 |
| 20260510165308 | 91 | 188 | 1.0 | 7.0 | 0.00 | 0.00 | 0.00 | 52 | 1016.3 |
| 20260510165137 | 90 | 298 | 3.0 | 8.0 | 0.00 | 0.00 | 0.00 | 54 | 1016.3 |
| 20260510164807 | 90 | 298 | 3.0 | 8.0 | 0.00 | 0.00 | 0.00 | 54 | 1016.3 |
| 20260510163731 | 89 | 105 | 2.0 | 9.0 | 0.00 | 0.00 | 0.00 | 55 | 1016.5 |
| 20260510163309 | 89 | 105 | 2.0 | 9.0 | 0.00 | 0.00 | 0.00 | 55 | 1016.5 |
| 20260510162718 | 89 | 210 | 3.0 | 8.0 | 0.00 | 0.00 | 0.00 | 56 | 1016.6 |
| 20260510162306 | 89 | 210 | 3.0 | 8.0 | 0.00 | 0.00 | 0.00 | 56 | 1016.6 |
| 20260510161755 | 88 | 215 | 3.0 | 8.0 | 0.00 | 0.00 | 0.00 | 57 | 1016.5 |
| 20260510161306 | 88 | 215 | 3.0 | 8.0 | 0.00 | 0.00 | 0.00 | 57 | 1016.5 |
| 20260510155853 | 88 | 197 | 2.0 | 12.0 | 0.00 | 0.00 | 0.00 | 56 | 1016.7 |
| 20260510155456 | 89 | 150 | 6.0 | 9.0 | 0.00 | 0.00 | 0.00 | 54 | 1016.7 |
| 20260510155305 | 89 | 150 | 6.0 | 9.0 | 0.00 | 0.00 | 0.00 | 54 | 1016.7 |
| 20260510155116 | 89 | 217 | 5.0 | 5.0 | 0.00 | 0.00 | 0.00 | 56 | 1016.6 |
| 20260510154806 | 89 | 217 | 5.0 | 5.0 | 0.00 | 0.00 | 0.00 | 56 | 1016.6 |
| 20260510154541 | 88 | 200 | 3.0 | 8.0 | 0.00 | 0.00 | 0.00 | 57 | 1016.6 |
| 20260510154456 | 88 | 200 | 3.0 | 8.0 | 0.00 | 0.00 | 0.00 | 57 | 1016.6 |
| 20260510154310 | 88 | 200 | 3.0 | 8.0 | 0.00 | 0.00 | 0.00 | 57 | 1016.6 |
| 20260510153547 | 88 | 214 | 4.0 | 7.0 | 0.00 | 0.00 | 0.00 | 58 | 1016.7 |
| 20260510153303 | 88 | 214 | 4.0 | 7.0 | 0.00 | 0.00 | 0.00 | 58 | 1016.7 |
| 20260510153116 | 88 | 236 | 2.0 | 8.0 | 0.00 | 0.00 | 0.00 | 58 | 1016.7 |
| 20260510152807 | 88 | 236 | 2.0 | 8.0 | 0.00 | 0.00 | 0.00 | 58 | 1016.7 |
| 20260510152423 | 87 | 160 | 7.0 | 8.0 | 0.00 | 0.00 | 0.00 | 60 | 1016.7 |
| 20260510151955 | 87 | 210 | 5.0 | 8.0 | 0.00 | 0.00 | 0.00 | 61 | 1016.6 |
| 20260510151510 | 87 | 253 | 1.0 | 8.0 | 0.00 | 0.00 | 0.00 | 60 | 1016.6 |
| 20260510151302 | 87 | 253 | 1.0 | 8.0 | 0.00 | 0.00 | 0.00 | 60 | 1016.6 |
| 20260510151121 | 87 | 191 | 5.0 | 8.0 | 0.00 | 0.00 | 0.00 | 62 | 1016.6 |
| 20260510150808 | 87 | 191 | 5.0 | 8.0 | 0.00 | 0.00 | 0.00 | 62 | 1016.6 |
| 20260510150453 | 87 | 201 | 4.0 | 9.0 | 0.00 | 0.00 | 0.00 | 62 | 1016.6 |
| 20260510150302 | 87 | 201 | 4.0 | 9.0 | 0.00 | 0.00 | 0.00 | 62 | 1016.6 |
| 20260510145920 | 86 | 190 | 2.0 | 7.0 | 0.00 | 0.00 | 0.00 | 62 | 1016.6 |
| 20260510145802 | 86 | 190 | 2.0 | 7.0 | 0.00 | 0.00 | 0.00 | 62 | 1016.6 |
| 20260510145431 | 86 | 217 | 1.0 | 8.0 | 0.00 | 0.00 | 0.00 | 62 | 1016.5 |
| 20260510145305 | 86 | 217 | 1.0 | 8.0 | 0.00 | 0.00 | 0.00 | 62 | 1016.5 |
| 20260510144939 | 86 | 203 | 3.0 | 8.0 | 0.00 | 0.00 | 0.00 | 63 | 1016.4 |
| 20260510144803 | 86 | 203 | 3.0 | 8.0 | 0.00 | 0.00 | 0.00 | 63 | 1016.4 |
| 20260510144446 | 85 | 201 | 3.0 | 7.0 | 0.00 | 0.00 | 0.00 | 64 | 1016.4 |
| 20260510144259 | 85 | 201 | 3.0 | 7.0 | 0.00 | 0.00 | 0.00 | 64 | 1016.4 |
| 20260510143930 | 85 | 285 | 2.0 | 5.0 | 0.00 | 0.00 | 0.00 | 66 | 1016.3 |
| 20260510143801 | 85 | 285 | 2.0 | 5.0 | 0.00 | 0.00 | 0.00 | 66 | 1016.3 |
| 20260510143552 | 84 | 181 | 3.0 | 7.0 | 0.00 | 0.00 | 0.00 | 67 | 1016.4 |
| 20260510143300 | 84 | 181 | 3.0 | 7.0 | 0.00 | 0.00 | 0.00 | 67 | 1016.4 |
| 20260510142941 | 84 | 198 | 5.0 | 7.0 | 0.00 | 0.00 | 0.00 | 68 | 1016.4 |
| 20260510142800 | 84 | 198 | 5.0 | 7.0 | 0.00 | 0.00 | 0.00 | 68 | 1016.4 |
| 20260510142614 | 84 | 172 | 3.0 | 7.0 | 0.00 | 0.00 | 0.00 | 68 | 1016.5 |
| 20260510142305 | 84 | 172 | 3.0 | 7.0 | 0.00 | 0.00 | 0.00 | 68 | 1016.5 |
| 20260510141939 | 84 | 150 | 6.0 | 8.0 | 0.00 | 0.00 | 0.00 | 68 | 1016.4 |
| 20260510141808 | 84 | 150 | 6.0 | 8.0 | 0.00 | 0.00 | 0.00 | 68 | 1016.4 |
| 20260510141549 | 83 | 174 | 6.0 | 7.0 | 0.00 | 0.00 | 0.00 | 69 | 1016.4 |
| 20260510141301 | 83 | 174 | 6.0 | 7.0 | 0.00 | 0.00 | 0.00 | 69 | 1016.4 |
| 20260510141114 | 83 | 211 | 7.0 | 6.0 | 0.00 | 0.00 | 0.00 | 72 | 1016.3 |
| 20260510140802 | 83 | 158 | 5.0 | 5.0 | 0.00 | 0.00 | 0.00 | 73 | 1016.3 |
| 20260510140259 | 83 | 158 | 5.0 | 5.0 | 0.00 | 0.00 | 0.00 | 73 | 1016.3 |
| 20260510135740 | 82 | 211 | 2.0 | 5.0 | 0.00 | 0.00 | 0.00 | 75 | 1016.2 |
| 20260510133801 | 81 | 169 | 3.0 | 7.0 | 0.00 | 0.00 | 0.00 | 75 | 1016.1 |
| 20260510133258 | 81 | 177 | 4.0 | 7.0 | 0.00 | 0.00 | 0.00 | 76 | 1016.0 |
| 20260510132600 | 81 | 162 | 5.0 | 5.0 | 0.00 | 0.00 | 0.00 | 78 | 1015.9 |
| 20260510132301 | 81 | 162 | 5.0 | 5.0 | 0.00 | 0.00 | 0.00 | 78 | 1015.9 |
| 20260510131527 | 80 | 159 | 2.0 | 5.0 | 0.00 | 0.00 | 0.00 | 80 | 1015.9 |
| 20260510131318 | 80 | 159 | 2.0 | 5.0 | 0.00 | 0.00 | 0.00 | 80 | 1015.9 |
| 20260510130544 | 80 | 132 | 6.0 | 4.0 | 0.00 | 0.00 | 0.00 | 82 | 1015.7 |
| 20260510130301 | 80 | 132 | 6.0 | 4.0 | 0.00 | 0.00 | 0.00 | 82 | 1015.7 |
| 20260510124951 | 79 | 190 | 3.0 | 7.0 | 0.00 | 0.00 | 0.00 | 85 | 1015.7 |
| 20260510124757 | 79 | 190 | 3.0 | 7.0 | 0.00 | 0.00 | 0.00 | 85 | 1015.7 |
| 20260510124448 | 79 | 135 | 3.0 | 7.0 | 0.00 | 0.00 | 0.00 | 86 | 1015.6 |
| 20260510124258 | 79 | 135 | 3.0 | 7.0 | 0.00 | 0.00 | 0.00 | 86 | 1015.6 |
| 20260510122921 | 77 | 132 | 0.0 | 7.0 | 0.00 | 0.00 | 0.00 | 89 | 1015.6 |
| 20260510122800 | 77 | 132 | 0.0 | 7.0 | 0.00 | 0.00 | 0.00 | 89 | 1015.6 |
| 20260510121951 | 77 | 166 | 4.0 | 5.0 | 0.00 | 0.00 | 0.00 | 90 | 1015.3 |
| 20260510121800 | 77 | 166 | 4.0 | 5.0 | 0.00 | 0.00 | 0.00 | 90 | 1015.3 |
| 20260510121302 | 76 | 181 | 4.0 | 4.0 | 0.00 | 0.00 | 0.00 | 91 | 1015.3 |
| 20260510120553 | 76 | 153 | 4.0 | 3.0 | 0.00 | 0.00 | 0.00 | 91 | 1015.0 |
| 20260510120259 | 76 | 153 | 4.0 | 3.0 | 0.00 | 0.00 | 0.00 | 91 | 1015.0 |
| 20260510114306 | 75 | 153 | 2.0 | 4.0 | 0.00 | 0.00 | 0.00 | 91 | 1015.0 |
| 20260510113256 | 75 | 187 | 3.0 | 4.0 | 0.00 | 0.00 | 0.00 | 91 | 1014.9 |
| 20260510104942 | 74 | 124 | 0.0 | 3.0 | 0.00 | 0.00 | 0.00 | 91 | 1014.1 |
| 20260510104801 | 74 | 124 | 0.0 | 3.0 | 0.00 | 0.00 | 0.00 | 91 | 1014.1 |
| 20260510103952 | 74 | 117 | 0.0 | 0.0 | 0.00 | 0.00 | 0.00 | 91 | 1013.9 |
| 20260510094225 | 75 | 65 | 0.0 | 0.0 | 0.00 | 0.00 | 0.00 | 90 | 1013.6 |
| 20260510093758 | 75 | 65 | 0.0 | 0.0 | 0.00 | 0.00 | 0.00 | 90 | 1013.6 |
| 20260510092752 | 75 | 65 | 0.0 | 0.0 | 0.00 | 0.00 | 0.00 | 90 | 1013.5 |
| 20260510091259 | 75 | 65 | 0.0 | 0.0 | 0.00 | 0.00 | 0.00 | 90 | 1013.4 |
| 20260510085331 | 75 | 65 | 0.0 | 0.0 | 0.00 | 0.00 | 0.00 | 90 | 1013.3 |
| 20260510085251 | 75 | 65 | 0.0 | 0.0 | 0.00 | 0.00 | 0.00 | 90 | 1013.3 |
| 20260510083301 | 75 | 65 | 0.0 | 0.0 | 0.00 | 0.00 | 0.00 | 89 | 1013.4 |
| 20260510081938 | 75 | 65 | 0.0 | 0.0 | 0.00 | 0.00 | 0.00 | 89 | 1013.2 |
| 20260510081751 | 75 | 65 | 0.0 | 0.0 | 0.00 | 0.00 | 0.00 | 89 | 1013.2 |
| 20260510081516 | 75 | 65 | 0.0 | 0.0 | 0.00 | 0.00 | 0.00 | 89 | 1013.2 |
| 20260510081322 | 75 | 65 | 0.0 | 0.0 | 0.00 | 0.00 | 0.00 | 89 | 1013.2 |
| 20260510081251 | 75 | 65 | 0.0 | 0.0 | 0.00 | 0.00 | 0.00 | 89 | 1013.2 |
| 20260510080906 | 75 | 65 | 0.0 | 0.0 | 0.00 | 0.00 | 0.00 | 89 | 1013.2 |
| 20260510080826 | 75 | 65 | 0.0 | 0.0 | 0.00 | 0.00 | 0.00 | 89 | 1013.2 |
| 20260510080751 | 75 | 65 | 0.0 | 0.0 | 0.00 | 0.00 | 0.00 | 89 | 1013.2 |
| 20260510075943 | 75 | 65 | 0.0 | 0.0 | 0.00 | 0.00 | 0.00 | 89 | 1013.2 |
| 20260510075751 | 75 | 65 | 0.0 | 0.0 | 0.00 | 0.00 | 0.00 | 89 | 1013.2 |
| 20260510075252 | 75 | 65 | 0.0 | 0.0 | 0.00 | 0.00 | 0.00 | 89 | 1013.3 |
| 20260510073915 | 75 | 65 | 0.0 | 0.0 | 0.00 | 0.00 | 0.00 | 89 | 1013.4 |
| 20260510073751 | 75 | 65 | 0.0 | 0.0 | 0.00 | 0.00 | 0.00 | 89 | 1013.4 |
| 20260510073555 | 75 | 65 | 0.0 | 0.0 | 0.00 | 0.00 | 0.00 | 89 | 1013.5 |
| 20260510073258 | 75 | 65 | 0.0 | 0.0 | 0.00 | 0.00 | 0.00 | 89 | 1013.5 |
| 20260510072442 | 75 | 65 | 0.0 | 0.0 | 0.00 | 0.00 | 0.00 | 89 | 1013.5 |
| 20260510072251 | 75 | 65 | 0.0 | 0.0 | 0.00 | 0.00 | 0.00 | 89 | 1013.5 |
| 20260510071947 | 75 | 65 | 0.0 | 0.0 | 0.00 | 0.00 | 0.00 | 89 | 1013.5 |
| 20260510071756 | 75 | 65 | 0.0 | 0.0 | 0.00 | 0.00 | 0.00 | 89 | 1013.5 |
| 20260510071458 | 75 | 65 | 0.0 | 0.0 | 0.00 | 0.00 | 0.00 | 89 | 1013.6 |
| 20260510071252 | 75 | 65 | 0.0 | 0.0 | 0.00 | 0.00 | 0.00 | 89 | 1013.6 |
| 20260510070942 | 75 | 65 | 0.0 | 0.0 | 0.00 | 0.00 | 0.00 | 88 | 1013.7 |
| 20260510070749 | 75 | 65 | 0.0 | 0.0 | 0.00 | 0.00 | 0.00 | 88 | 1013.7 |
| 20260510070544 | 75 | 65 | 0.0 | 0.0 | 0.00 | 0.00 | 0.00 | 88 | 1013.8 |
| 20260510070414 | 75 | 65 | 0.0 | 0.0 | 0.00 | 0.00 | 0.00 | 88 | 1013.8 |
| 20260510070300 | 75 | 65 | 0.0 | 0.0 | 0.00 | 0.00 | 0.00 | 88 | 1013.8 |
| 20260510065734 | 75 | 65 | 0.0 | 0.0 | 0.00 | 0.00 | 0.00 | 88 | 1013.8 |
| 20260510065600 | 75 | 65 | 0.0 | 0.0 | 0.00 | 0.00 | 0.00 | 88 | 1013.8 |
| 20260510065250 | 75 | 65 | 0.0 | 0.0 | 0.00 | 0.00 | 0.00 | 88 | 1013.8 |
| 20260510065023 | 75 | 65 | 0.0 | 0.0 | 0.00 | 0.00 | 0.00 | 88 | 1013.7 |
| 20260510064802 | 75 | 65 | 0.0 | 0.0 | 0.00 | 0.00 | 0.00 | 88 | 1013.7 |
| 20260510063412 | 75 | 65 | 0.0 | 0.0 | 0.00 | 0.00 | 0.00 | 88 | 1013.7 |
| 20260510063248 | 75 | 65 | 0.0 | 0.0 | 0.00 | 0.00 | 0.00 | 88 | 1013.7 |
| 20260510063225 | 75 | 65 | 0.0 | 0.0 | 0.00 | 0.00 | 0.00 | 88 | 1013.8 |
| 20260510062323 | 75 | 65 | 0.0 | 0.0 | 0.00 | 0.00 | 0.00 | 88 | 1013.8 |
| 20260510062248 | 75 | 65 | 0.0 | 0.0 | 0.00 | 0.00 | 0.00 | 88 | 1013.8 |
| 20260510061249 | 76 | 63 | 0.0 | 0.0 | 0.00 | 0.00 | 0.00 | 88 | 1013.9 |
| 20260510060951 | 76 | 63 | 0.0 | 0.0 | 0.00 | 0.00 | 0.00 | 87 | 1014.1 |
| 20260510060840 | 76 | 63 | 0.0 | 0.0 | 0.00 | 0.00 | 0.00 | 87 | 1014.1 |
| 20260510060250 | 76 | 63 | 0.0 | 0.0 | 0.00 | 0.00 | 0.00 | 87 | 1014.1 |
| 20260510055511 | 76 | 63 | 0.0 | 0.0 | 0.00 | 0.00 | 0.00 | 87 | 1014.1 |
| 20260510055342 | 76 | 63 | 0.0 | 1.0 | 0.00 | 0.00 | 0.00 | 87 | 1014.1 |
| 20260510055247 | 76 | 63 | 0.0 | 1.0 | 0.00 | 0.00 | 0.00 | 87 | 1014.1 |
| 20260510054750 | 76 | 63 | 0.0 | 0.0 | 0.00 | 0.00 | 0.00 | 87 | 1014.1 |
| 20260510054634 | 76 | 13 | 0.0 | 2.0 | 0.00 | 0.00 | 0.00 | 87 | 1014.1 |
| 20260510054249 | 76 | 13 | 0.0 | 2.0 | 0.00 | 0.00 | 0.00 | 87 | 1014.1 |
| 20260510053750 | 76 | 13 | 0.0 | 3.0 | 0.00 | 0.00 | 0.00 | 87 | 1014.2 |
| 20260510053115 | 76 | 62 | 2.0 | 0.0 | 0.00 | 0.00 | 0.00 | 87 | 1014.3 |
| 20260510053041 | 76 | 62 | 2.0 | 0.0 | 0.00 | 0.00 | 0.00 | 87 | 1014.3 |
| 20260510052750 | 76 | 62 | 2.0 | 0.0 | 0.00 | 0.00 | 0.00 | 87 | 1014.3 |
| 20260510052255 | 76 | 24 | 0.0 | 3.0 | 0.00 | 0.00 | 0.00 | 87 | 1014.4 |
| 20260510051330 | 76 | 75 | 3.0 | 3.0 | 0.00 | 0.00 | 0.00 | 87 | 1014.5 |
| 20260510051256 | 76 | 62 | 0.0 | 0.0 | 0.00 | 0.00 | 0.00 | 86 | 1014.9 |
| 20260510051248 | 76 | 75 | 3.0 | 3.0 | 0.00 | 0.00 | 0.00 | 87 | 1014.5 |
| 20260510050249 | 76 | 62 | 0.0 | 0.0 | 0.00 | 0.00 | 0.00 | 86 | 1014.9 |
| 20260510043421 | 76 | 62 | 0.0 | 0.0 | 0.00 | 0.00 | 0.00 | 85 | 1015.0 |
| 20260510043251 | 76 | 62 | 0.0 | 0.0 | 0.00 | 0.00 | 0.00 | 85 | 1015.0 |
| 20260510042757 | 76 | 62 | 0.0 | 0.0 | 0.00 | 0.00 | 0.00 | 85 | 1014.8 |
| 20260510042752 | 76 | 62 | 0.0 | 0.0 | 0.00 | 0.00 | 0.00 | 85 | 1015.0 |
| 20260510042257 | 76 | 62 | 0.0 | 0.0 | 0.00 | 0.00 | 0.00 | 85 | 1014.8 |
| 20260510042252 | 76 | 62 | 0.0 | 0.0 | 0.00 | 0.00 | 0.00 | 85 | 1014.8 |
| 20260510041752 | 76 | 62 | 0.0 | 0.0 | 0.00 | 0.00 | 0.00 | 85 | 1014.8 |
| 20260510041746 | 76 | 62 | 0.0 | 0.0 | 0.00 | 0.00 | 0.00 | 85 | 1014.8 |
| 20260510041429 | 76 | 62 | 0.0 | 2.0 | 0.00 | 0.00 | 0.00 | 85 | 1014.9 |
| 20260510041248 | 76 | 62 | 0.0 | 0.0 | 0.00 | 0.00 | 0.00 | 85 | 1014.8 |
| 20260510040747 | 76 | 62 | 0.0 | 2.0 | 0.00 | 0.00 | 0.00 | 85 | 1014.9 |
| 20260510040248 | 77 | 39 | 1.0 | 5.0 | 0.00 | 0.00 | 0.00 | 85 | 1014.8 |
| 20260510035606 | 77 | 51 | 0.0 | 5.0 | 0.00 | 0.00 | 0.00 | 84 | 1014.7 |
| 20260510035249 | 77 | 76 | 1.0 | 2.0 | 0.00 | 0.00 | 0.00 | 84 | 1014.6 |
| 20260510034813 | 77 | 23 | 3.0 | 2.0 | 0.00 | 0.00 | 0.00 | 84 | 1014.8 |
| 20260510034748 | 77 | 51 | 0.0 | 5.0 | 0.00 | 0.00 | 0.00 | 84 | 1014.7 |
| 20260510034249 | 77 | 23 | 3.0 | 2.0 | 0.00 | 0.00 | 0.00 | 84 | 1014.8 |
| 20260510033752 | 77 | 53 | 0.0 | 5.0 | 0.00 | 0.00 | 0.00 | 83 | 1014.8 |
| 20260510032249 | 77 | 56 | 0.0 | 3.0 | 0.00 | 0.00 | 0.00 | 82 | 1014.8 |
| 20260510031622 | 77 | 41 | 0.0 | 0.0 | 0.00 | 0.00 | 0.00 | 80 | 1014.8 |
| 20260510031250 | 77 | 41 | 0.0 | 0.0 | 0.00 | 0.00 | 0.00 | 80 | 1014.8 |
| 20260510030959 | 77 | 41 | 0.0 | 0.0 | 0.00 | 0.00 | 0.00 | 80 | 1014.7 |
| 20260510030248 | 77 | 41 | 0.0 | 0.0 | 0.00 | 0.00 | 0.00 | 80 | 1014.7 |
| 20260510024247 | 78 | 354 | 2.0 | 6.0 | 0.00 | 0.00 | 0.00 | 80 | 1014.7 |
| 20260510023844 | 78 | 46 | 2.0 | 7.0 | 0.00 | 0.00 | 0.00 | 79 | 1014.6 |
| 20260510023300 | 78 | 46 | 2.0 | 7.0 | 0.00 | 0.00 | 0.00 | 79 | 1014.6 |
| 20260510022752 | 78 | 39 | 2.0 | 4.0 | 0.00 | 0.00 | 0.00 | 79 | 1014.5 |
| 20260510022248 | 78 | 39 | 2.0 | 4.0 | 0.00 | 0.00 | 0.00 | 79 | 1014.5 |
| 20260510021248 | 78 | 55 | 1.0 | 6.0 | 0.00 | 0.00 | 0.00 | 78 | 1014.5 |
| 20260510020248 | 78 | 342 | 0.0 | 3.0 | 0.00 | 0.00 | 0.00 | 78 | 1014.5 |
| 20260510020048 | 78 | 18 | 1.0 | 4.0 | 0.00 | 0.00 | 0.00 | 77 | 1014.4 |
| 20260510015250 | 78 | 18 | 1.0 | 4.0 | 0.00 | 0.00 | 0.00 | 77 | 1014.4 |
| 20260510014745 | 78 | 345 | 3.0 | 3.0 | 0.00 | 0.00 | 0.00 | 77 | 1014.4 |
| 20260510014249 | 78 | 345 | 3.0 | 3.0 | 0.00 | 0.00 | 0.00 | 77 | 1014.4 |
| 20260510013819 | 78 | 352 | 4.0 | 6.0 | 0.00 | 0.00 | 0.00 | 77 | 1014.2 |
| 20260510013250 | 78 | 7 | 2.0 | 6.0 | 0.00 | 0.00 | 0.00 | 77 | 1014.3 |
| 20260510012248 | 78 | 7 | 2.0 | 6.0 | 0.00 | 0.00 | 0.00 | 77 | 1014.3 |
| 20260510012131 | 78 | 338 | 5.0 | 6.0 | 0.00 | 0.00 | 0.00 | 78 | 1014.0 |
| 20260510011743 | 78 | 11 | 2.0 | 7.0 | 0.00 | 0.00 | 0.00 | 78 | 1014.2 |
| 20260510011244 | 78 | 338 | 5.0 | 6.0 | 0.00 | 0.00 | 0.00 | 78 | 1014.0 |
| 20260510010744 | 79 | 27 | 2.0 | 8.0 | 0.00 | 0.00 | 0.00 | 78 | 1013.9 |
| 20260510005745 | 79 | 11 | 4.0 | 7.0 | 0.00 | 0.00 | 0.00 | 79 | 1013.7 |
| 20260510003744 | 79 | 284 | 0.0 | 7.0 | 0.00 | 0.00 | 0.00 | 79 | 1013.4 |
| 20260510000958 | 79 | 41 | 4.0 | 10.0 | 0.00 | 0.00 | 0.00 | 78 | 1013.2 |
| 20260510000743 | 79 | 41 | 4.0 | 10.0 | 0.00 | 0.00 | 0.00 | 78 | 1013.2 |
| 20260510000243 | 79 | 31 | 7.0 | 12.0 | 0.00 | 0.00 | 0.00 | 78 | 1013.1 |
| 20260509235545 | 80 | 70 | 7.0 | 11.0 | 0.00 | 0.00 | 0.00 | 77 | 1013.2 |
| 20260509235244 | 80 | 70 | 7.0 | 11.0 | 0.00 | 0.00 | 0.00 | 77 | 1013.2 |
| 20260509235116 | 80 | 55 | 5.0 | 10.0 | 0.00 | 0.00 | 0.00 | 77 | 1013.2 |
| 20260509234819 | 80 | 38 | 7.0 | 8.0 | 0.00 | 0.00 | 0.00 | 77 | 1013.1 |
| 20260509234744 | 80 | 55 | 5.0 | 10.0 | 0.00 | 0.00 | 0.00 | 77 | 1013.2 |
| 20260509234247 | 80 | 38 | 7.0 | 8.0 | 0.00 | 0.00 | 0.00 | 77 | 1013.1 |
| 20260509234122 | 80 | 346 | 5.0 | 10.0 | 0.00 | 0.00 | 0.00 | 74 | 1012.9 |
| 20260509233242 | 80 | 346 | 5.0 | 10.0 | 0.00 | 0.00 | 0.00 | 74 | 1012.9 |
| 20260509232242 | 81 | 357 | 5.0 | 11.0 | 0.00 | 0.00 | 0.00 | 72 | 1012.8 |
| 20260509231742 | 81 | 359 | 4.0 | 15.0 | 0.00 | 0.00 | 0.00 | 72 | 1012.7 |
| 20260509231116 | 81 | 333 | 8.0 | 12.0 | 0.00 | 0.00 | 0.00 | 70 | 1012.5 |